GW3475 Weather Reports


Display with metric or nautical units.
time (UTC)temp
F
wind
direction
speed
MPH
gust
MPH
rain 1hr
in
rain 24hr
in
rain mn
in
humidity
%
barometer
mb
20260505052204 66 142 1.0 1.0 0.00 0.00 0.00 70 1008.7
20260505051702 66 139 0.0 1.0 0.00 0.00 0.00 70 1008.6
20260505051159 66 126 2.0 2.0 0.00 0.00 0.00 69 1008.7
20260505050657 66 131 1.0 1.0 0.00 0.00 0.00 70 1008.7
20260505050155 66 129 1.0 2.0 0.00 0.00 0.00 70 1008.7
20260505041625 67 130 1.0 1.0 0.00 0.00 0.00 70 1009.1
20260505041122 67 127 0.0 1.0 0.00 0.00 0.00 70 1009.0
20260505040619 67 126 1.0 1.0 0.00 0.00 0.00 69 1009.1
20260505040116 67 156 1.0 2.0 0.00 0.00 0.00 69 1009.3
20260505035613 67 144 2.0 3.0 0.00 0.00 0.00 69 1009.1
20260505035109 67 119 0.0 0.0 0.00 0.00 0.00 69 1009.1
20260505034606 67 98 1.0 1.0 0.00 0.00 0.00 69 1009.0
20260505034103 67 123 1.0 2.0 0.00 0.00 0.00 69 1009.0
20260505033559 68 159 1.0 2.0 0.00 0.00 0.00 68 1009.0
20260505033058 68 121 1.0 1.0 0.00 0.00 0.00 68 1009.2
20260505032555 68 125 1.0 1.0 0.00 0.00 0.00 68 1009.2
20260505032051 68 131 1.0 1.0 0.00 0.00 0.00 67 1009.1
20260505031549 68 150 1.0 2.0 0.00 0.00 0.00 66 1009.2
20260505031045 68 125 1.0 1.0 0.00 0.00 0.00 66 1009.2
20260505030542 69 114 0.0 0.0 0.00 0.00 0.00 66 1009.2
20260505030038 69 140 2.0 2.0 0.00 0.00 0.00 66 1008.9
20260505025534 69 141 1.0 2.0 0.00 0.00 0.00 66 1008.8
20260505025033 69 127 0.0 1.0 0.00 0.00 0.00 66 1008.9
20260505024530 69 111 0.0 1.0 0.00 0.00 0.00 66 1008.5
20260505024027 69 124 0.0 1.0 0.00 0.00 0.00 65 1008.7
20260505023524 70 116 0.0 0.0 0.00 0.00 0.00 65 1008.6
20260505023022 70 123 1.0 2.0 0.00 0.00 0.00 64 1008.4
20260505022519 70 114 1.0 1.0 0.00 0.00 0.00 64 1008.7
20260505022016 70 147 1.0 2.0 0.00 0.00 0.00 64 1008.6
20260505021512 70 152 1.0 2.0 0.00 0.00 0.00 64 1008.4
20260505021009 70 122 1.0 2.0 0.00 0.00 0.00 64 1008.4
20260505020503 70 119 0.0 2.0 0.00 0.00 0.00 64 1008.4
20260505020000 70 114 0.0 0.0 0.00 0.00 0.00 64 1008.2
20260505015457 70 133 1.0 1.0 0.00 0.00 0.00 64 1008.3
20260505014954 70 125 1.0 1.0 0.00 0.00 0.00 64 1008.3
20260505014451 70 144 1.0 2.0 0.00 0.00 0.00 64 1008.3
20260505013948 71 155 2.0 2.0 0.00 0.00 0.00 63 1008.3
20260505013445 71 110 0.0 1.0 0.00 0.00 0.00 63 1008.2
20260505012943 71 127 0.0 1.0 0.00 0.00 0.00 63 1008.2
20260505012441 71 117 0.0 1.0 0.00 0.00 0.00 63 1008.2
20260505011937 71 113 1.0 2.0 0.00 0.00 0.00 62 1008.1
20260505011433 71 128 1.0 1.0 0.00 0.00 0.00 61 1008.3
20260505010930 71 132 1.0 2.0 0.00 0.00 0.00 62 1008.1
20260505010426 72 108 0.0 0.0 0.00 0.00 0.00 61 1008.0
20260505005922 72 134 1.0 2.0 0.00 0.00 0.00 60 1007.9
20260505005419 72 139 1.0 1.0 0.00 0.00 0.00 60 1008.0
20260505004917 73 118 0.0 0.0 0.00 0.00 0.00 59 1007.9
20260505004413 73 128 0.0 0.0 0.00 0.00 0.00 59 1007.8
20260505003910 73 138 0.0 0.0 0.00 0.00 0.00 59 1007.8
20260505003407 73 111 1.0 1.0 0.00 0.00 0.00 59 1008.0
20260505002904 73 136 1.0 1.0 0.00 0.00 0.00 59 1008.2
20260505002400 73 107 0.0 1.0 0.00 0.00 0.00 58 1008.0
20260505001859 74 114 1.0 1.0 0.00 0.00 0.00 58 1008.1
20260505001355 74 113 0.0 0.0 0.00 0.00 0.00 58 1008.1
20260505000853 74 123 2.0 2.0 0.00 0.00 0.00 57 1008.2
20260505000351 74 153 2.0 2.0 0.00 0.00 0.00 57 1008.0
20260504235847 74 172 1.0 2.0 0.00 0.00 0.00 56 1008.1
20260504235344 74 138 3.0 5.0 0.00 0.00 0.00 56 1008.1
20260504234840 74 127 1.0 1.0 0.00 0.00 0.00 57 1008.2
20260504234338 75 137 2.0 2.0 0.00 0.00 0.00 56 1008.3
20260504233834 75 124 1.0 1.0 0.00 0.00 0.00 57 1008.2
20260504233330 75 127 3.0 5.0 0.00 0.00 0.00 56 1008.3
20260504232827 75 114 1.0 1.0 0.00 0.00 0.00 56 1008.3
20260504232324 75 173 3.0 5.0 0.00 0.00 0.00 55 1008.4
20260504231821 75 125 3.0 3.0 0.00 0.00 0.00 55 1008.5
20260504231318 75 189 2.0 2.0 0.00 0.00 0.00 54 1008.5
20260504230814 76 223 3.0 5.0 0.00 0.00 0.00 54 1008.5
20260504230312 76 225 3.0 5.0 0.00 0.00 0.00 54 1008.7
20260504225810 76 155 3.0 5.0 0.00 0.00 0.00 54 1008.7
20260504225306 76 156 1.0 3.0 0.00 0.00 0.00 54 1009.0
20260504224803 76 147 4.0 7.0 0.00 0.00 0.00 54 1008.9
20260504224301 76 250 3.0 5.0 0.00 0.00 0.00 54 1008.8
20260504223757 76 218 3.0 5.0 0.00 0.00 0.00 54 1008.7
20260504223253 76 224 3.0 3.0 0.00 0.00 0.00 53 1009.0
20260504222750 76 213 5.0 7.0 0.00 0.00 0.00 53 1008.8
20260504222246 76 135 3.0 5.0 0.00 0.00 0.00 53 1009.0
20260504221744 77 266 4.0 7.0 0.00 0.00 0.00 52 1008.9
20260504221241 77 168 2.0 3.0 0.00 0.00 0.00 52 1009.0
20260504220738 77 147 2.0 2.0 0.00 0.00 0.00 53 1008.9
20260504220235 77 141 0.0 0.0 0.00 0.00 0.00 53 1009.2
20260504215732 76 311 3.0 3.0 0.00 0.00 0.00 52 1009.0
20260504215229 77 229 3.0 5.0 0.00 0.00 0.00 52 1009.3
20260504214725 77 159 2.0 2.0 0.00 0.00 0.00 51 1009.3
20260504214221 77 193 1.0 2.0 0.00 0.00 0.00 52 1009.3
20260504213718 77 138 2.0 3.0 0.00 0.00 0.00 52 1009.5
20260504213214 77 179 2.0 3.0 0.00 0.00 0.00 52 1009.4
20260504212711 77 274 3.0 5.0 0.00 0.00 0.00 52 1009.4
20260504212208 77 241 3.0 7.0 0.00 0.00 0.00 52 1009.6
20260504211705 77 236 3.0 5.0 0.00 0.00 0.00 52 1009.4
20260504211202 77 320 5.0 13.0 0.00 0.00 0.00 51 1009.7
20260504210659 77 163 2.0 2.0 0.00 0.00 0.00 52 1009.5
20260504210155 77 159 4.0 5.0 0.00 0.00 0.00 51 1009.8
20260504205653 77 145 2.0 3.0 0.00 0.00 0.00 52 1009.7
20260504205150 77 254 8.0 9.0 0.00 0.00 0.00 51 1009.6
20260504204648 77 160 2.0 3.0 0.00 0.00 0.00 51 1009.9
20260504204147 77 250 4.0 6.0 0.00 0.00 0.00 51 1010.0
20260504203645 78 261 5.0 8.0 0.00 0.00 0.00 51 1009.9
20260504203143 78 122 0.0 1.0 0.00 0.00 0.00 51 1009.9
20260504202637 78 179 3.0 5.0 0.00 0.00 0.00 51 1010.2
20260504202135 77 133 1.0 2.0 0.00 0.00 0.00 52 1010.2
20260504201631 77 102 2.0 3.0 0.00 0.00 0.00 52 1010.5
20260504201129 77 227 6.0 9.0 0.00 0.00 0.00 50 1010.6
20260504200626 78 278 8.0 10.0 0.00 0.00 0.00 50 1010.7
20260504200123 77 188 5.0 8.0 0.00 0.00 0.00 49 1010.7
20260504195618 77 154 3.0 5.0 0.00 0.00 0.00 50 1010.7
20260504195115 77 194 4.0 5.0 0.00 0.00 0.00 50 1010.9
20260504194612 77 126 5.0 8.0 0.00 0.00 0.00 50 1010.8
20260504194107 76 170 2.0 3.0 0.00 0.00 0.00 53 1010.9
20260504193604 77 169 5.0 7.0 0.00 0.00 0.00 50 1011.0
20260504193103 78 177 3.0 5.0 0.00 0.00 0.00 50 1011.1
20260504192601 77 154 4.0 8.0 0.00 0.00 0.00 51 1011.1
20260504192058 77 255 5.0 6.0 0.00 0.00 0.00 49 1011.3
20260504191555 77 25 2.0 2.0 0.00 0.00 0.00 51 1011.4
20260504191046 77 140 3.0 5.0 0.00 0.00 0.00 51 1011.6
20260504190543 76 282 3.0 3.0 0.00 0.00 0.00 51 1011.7
20260504190038 77 284 5.0 7.0 0.00 0.00 0.00 50 1011.6
20260504185536 76 141 3.0 6.0 0.00 0.00 0.00 50 1011.9
20260504185032 78 240 3.0 3.0 0.00 0.00 0.00 49 1012.0
20260504184527 76 236 5.0 6.0 0.00 0.00 0.00 50 1012.0
20260504184018 76 267 8.0 11.0 0.00 0.00 0.00 50 1011.8
20260504183515 76 165 2.0 5.0 0.00 0.00 0.00 51 1011.8
20260504183013 75 266 6.0 9.0 0.00 0.00 0.00 51 1012.0
20260504182509 76 244 9.0 10.0 0.00 0.00 0.00 49 1012.3
20260504182007 76 156 2.0 3.0 0.00 0.00 0.00 51 1011.9
20260504181504 77 218 5.0 8.0 0.00 0.00 0.00 48 1012.1
20260504181003 77 106 0.0 0.0 0.00 0.00 0.00 50 1012.1
20260504180501 77 153 1.0 2.0 0.00 0.00 0.00 53 1012.4
20260504175959 76 153 2.0 5.0 0.00 0.00 0.00 51 1012.4
20260504175456 76 223 8.0 13.0 0.00 0.00 0.00 50 1012.5
20260504174953 76 195 4.0 7.0 0.00 0.00 0.00 50 1012.7
20260504174451 76 261 3.0 5.0 0.00 0.00 0.00 52 1012.5
20260504173948 75 226 4.0 5.0 0.00 0.00 0.00 51 1012.5
20260504173443 76 237 6.0 10.0 0.00 0.00 0.00 51 1012.9
20260504172942 76 119 3.0 6.0 0.00 0.00 0.00 51 1012.7
20260504172437 75 286 5.0 7.0 0.00 0.00 0.00 50 1012.8
20260504171934 75 166 1.0 3.0 0.00 0.00 0.00 54 1013.0
20260504171432 75 253 8.0 9.0 0.00 0.00 0.00 50 1013.1
20260504170928 75 252 6.0 10.0 0.00 0.00 0.00 50 1013.2
20260504170425 75 170 3.0 8.0 0.00 0.00 0.00 51 1013.0
20260504160343 75 144 1.0 2.0 0.00 0.00 0.00 55 1013.8
20260504150808 72 253 4.0 5.0 0.00 0.00 0.00 61 1013.9
20260504150305 71 271 4.0 7.0 0.00 0.00 0.00 62 1013.8
20260504141229 67 240 5.0 7.0 0.00 0.00 0.00 67 1014.1
20260504140725 66 231 7.0 8.0 0.00 0.00 0.00 67 1014.2
20260504140221 66 241 6.0 8.0 0.00 0.00 0.00 68 1014.1
20260504130650 60 118 1.0 2.0 0.00 0.00 0.00 81 1014.2
20260504130146 59 122 1.0 1.0 0.00 0.00 0.00 82 1014.1
20260504120110 57 105 0.0 0.0 0.00 0.00 0.00 87 1013.3
20260504110538 57 99 0.0 0.0 0.00 0.00 0.00 86 1013.3
20260504100459 57 91 0.0 0.0 0.00 0.00 0.00 85 1013.6
20260504081852 59 90 0.0 0.0 0.00 0.00 0.00 82 1013.7
20260504081349 59 96 0.0 0.0 0.00 0.00 0.00 81 1013.9
20260504080845 60 98 0.0 0.0 0.00 0.00 0.00 80 1013.8
20260504080342 60 98 0.0 0.0 0.00 0.00 0.00 80 1013.7
20260504070304 63 201 1.0 2.0 0.00 0.00 0.00 74 1014.2
20260504060224 64 140 1.0 1.0 0.00 0.00 0.00 71 1014.9